Location: Fort Wayne
(41.1310°N, 85.1290°W)
Time: 11:17:38
(UTC-05:00)

Cosmos 2219 Rocket - Visible Passes

Search period start: 25 January 2015 00:00
Search period end: 04 February 2015 00:00
Orbit: 829 x 846 km, 71.0° (Epoch: 23 January)

Date Brightness Start Highest point End Pass type
(mag) Time Alt. Az. Time Alt. Az. Time Alt. Az.
01 Feb 3.9 07:11:13 10° N 07:16:03 29° NE 07:20:55 10° ESE visible
02 Feb 4.0 06:55:01 10° N 06:59:43 28° NE 07:04:30 10° ESE visible
03 Feb 4.1 06:38:48 10° N 06:43:24 26° NE 06:48:03 10° ESE visible
